Weather History for Culpeper, VA

Change the Weather History Date:

Saturday, May 5, 2012

  Actual Average (KOMH) Record (KOMH)
Temperature  
Mean Temperature 70 °F -  
Max Temperature 80 °F 68 °F 91 °F (1949)
Min Temperature 59 °F 47 °F 36 °F (1957)
Cooling Degree Days 4    
Growing Degree Days 20 (Base 50)    
Moisture  
Dew Point 64 °F    
Average Humidity 87    
Maximum Humidity 100    
Minimum Humidity 58    
Precipitation  
Precipitation 0.98 in - - ()
Sea Level Pressure  
Sea Level Pressure 29.90 in    
Wind  
Wind Speed 2 mph (NNE)    
Max Wind Speed 17 mph    
Max Gust Speed 26 mph    
Visibility 5 miles    
Events Fog , Rain    
Averages and records for this station are not official NWS values.
T = Trace of Precipitation, MM = Missing Value Source: NWS Daily Summary

Daily Weather History Graph

Daily Weather History Graph

Search for Another Location

Airport:

Trip Planner

Search our weather history database for the weather conditions in past years. The results will help you decide how hot, cold, wet, or windy it might be!

Date:

Astronomy

May. 05, 2012 Rise Set
Actual Time 6:09 AM EDT 8:07 PM EDT
Civil Twilight 5:40 AM EDT 8:36 PM EDT
Nautical Twilight 5:05 AM EDT 9:11 PM EDT
Astronomical Twilight 4:27 AM EDT 9:50 PM EDT
Moon 7:57 PM EDT (5/5) 5:30 AM EDT (5/5)
Length of Visible Light 14h 56m
Length of Day
13h 58m
Full, 100% of the Moon is Illuminated
May 5
Full
May 5
Full
May 12
Last Quarter
May 20
New
May 28
First Quarter

Hourly Weather History & Observations

Time (EDT) Temp. Heat Index Dew Point Humidity Pressure Visibility Wind Dir Wind Speed Gust Speed Precip Events Conditions
12:15 AM 62.6 °F - 62.6 °F 100% 29.91 in 0.8 mi Calm Calm - N/A   Mist
12:35 AM 62.6 °F - 62.6 °F 100% 29.90 in 0.2 mi Calm Calm - N/A Fog Fog
12:55 AM 62.6 °F - 62.6 °F 100% 29.90 in 0.2 mi Calm Calm - N/A Fog Fog
1:15 AM 62.6 °F - 62.6 °F 100% 29.90 in 0.2 mi Calm Calm - N/A Fog Fog
1:35 AM 62.6 °F - 62.6 °F 100% 29.89 in 0.5 mi Calm Calm - N/A Fog Fog
1:55 AM 62.6 °F - 62.6 °F 100% 29.88 in 0.5 mi Calm Calm - N/A Fog Fog
2:15 AM 62.6 °F - 62.6 °F 100% 29.89 in 1.0 mi Calm Calm - N/A   Overcast
2:35 AM 62.6 °F - 60.8 °F 94% 29.89 in 0.5 mi Calm Calm - N/A Fog Fog
2:55 AM 60.8 °F - 60.8 °F 100% 29.88 in 0.2 mi Calm Calm - N/A Fog Fog
3:15 AM 60.8 °F - 60.8 °F 100% 29.89 in 1.2 mi Calm Calm - N/A   Mostly Cloudy
3:35 AM 60.8 °F - 60.8 °F 100% 29.88 in 0.2 mi Calm Calm - N/A Fog Fog
3:55 AM 60.8 °F - 60.8 °F 100% 29.89 in 0.8 mi North 4.6 mph - N/A   Overcast
4:15 AM 60.8 °F - 60.8 °F 100% 29.88 in 1.5 mi Calm Calm - N/A   Mostly Cloudy
4:35 AM 60.8 °F - 60.8 °F 100% 29.88 in 1.5 mi Calm Calm - N/A   Mist
4:55 AM 60.8 °F - 60.8 °F 100% 29.89 in 1.0 mi Calm Calm - N/A   Mist
5:15 AM 60.8 °F - 59.0 °F 94% 29.88 in 3.0 mi Calm Calm - N/A   Clear
5:35 AM 60.8 °F - 60.8 °F 100% 29.88 in 5.0 mi Calm Calm - N/A   Clear
5:55 AM 60.8 °F - 60.8 °F 100% 29.88 in 4.0 mi Calm Calm - N/A   Clear
6:15 AM 59.0 °F - 59.0 °F 100% 29.88 in 1.0 mi Calm Calm - N/A   Mist
6:35 AM 59.0 °F - 59.0 °F 100% 29.88 in 1.0 mi Calm Calm - N/A   Mist
6:55 AM 60.8 °F - 60.8 °F 100% 29.89 in 1.2 mi Calm Calm - N/A   Mist
7:15 AM 60.8 °F - 60.8 °F 100% 29.88 in 4.0 mi Calm Calm - N/A   Clear
7:35 AM 64.4 °F - 62.6 °F 94% 29.89 in 5.0 mi Calm Calm - N/A   Clear
7:55 AM 64.4 °F - 64.4 °F 100% 29.90 in 2.0 mi Calm Calm - N/A   Clear
8:15 AM 66.2 °F - 64.4 °F 94% 29.90 in 10.0 mi Calm Calm - N/A   Clear
8:35 AM 68.0 °F - 64.4 °F 88% 29.90 in 10.0 mi North 3.5 mph - N/A   Clear
8:55 AM 69.8 °F - 66.2 °F 88% 29.91 in 5.0 mi NNE 4.6 mph - N/A   Clear
9:15 AM 71.6 °F - 66.2 °F 83% 29.90 in 4.0 mi NNE 6.9 mph - N/A   Haze
9:35 AM 73.4 °F - 66.2 °F 78% 29.91 in 7.0 mi NE 5.8 mph - N/A   Clear
9:55 AM 73.4 °F - 64.4 °F 73% 29.92 in 10.0 mi NNE 5.8 mph - N/A   Clear
10:15 AM 75.2 °F - 66.2 °F 73% 29.92 in 10.0 mi North 10.4 mph - N/A   Clear
10:35 AM 77.0 °F - 64.4 °F 65% 29.92 in 10.0 mi North 11.5 mph - N/A   Clear
10:55 AM 75.2 °F - 64.4 °F 69% 29.92 in 10.0 mi NNE 6.9 mph 10.4 mph N/A   Clear
11:15 AM 77.0 °F - 64.4 °F 65% 29.92 in 10.0 mi NNE 8.1 mph - N/A   Clear
11:35 AM 78.8 °F - 64.4 °F 61% 29.91 in 10.0 mi NE 3.5 mph - N/A   Clear
11:55 AM 78.8 °F - 64.4 °F 61% 29.91 in 10.0 mi North 6.9 mph - N/A   Clear
12:15 PM 80.6 °F 82.7 °F 66.2 °F 61% 29.91 in 10.0 mi ENE 3.5 mph - N/A   Scattered Clouds
12:35 PM 80.6 °F 82.3 °F 64.4 °F 58% 29.91 in 10.0 mi ENE 3.5 mph - N/A   Scattered Clouds
12:55 PM 80.6 °F 82.3 °F 64.4 °F 58% 29.90 in 10.0 mi NE 5.8 mph - N/A   Scattered Clouds
1:15 PM 78.8 °F - 64.4 °F 61% 29.90 in 10.0 mi NE 5.8 mph - N/A   Mostly Cloudy
1:35 PM 78.8 °F - 64.4 °F 61% 29.90 in 10.0 mi NNE 3.5 mph - N/A   Mostly Cloudy
1:55 PM 78.8 °F - 64.4 °F 61% 29.89 in 10.0 mi NNE 8.1 mph - N/A   Scattered Clouds
2:15 PM 80.6 °F 82.3 °F 64.4 °F 58% 29.88 in 10.0 mi NE 5.8 mph - N/A   Scattered Clouds
2:35 PM 80.6 °F 82.3 °F 64.4 °F 58% 29.88 in 10.0 mi NE 6.9 mph - N/A   Clear
2:55 PM 80.6 °F 82.3 °F 64.4 °F 58% 29.88 in 10.0 mi North 9.2 mph - N/A   Scattered Clouds
3:15 PM 78.8 °F - 64.4 °F 61% 29.87 in 10.0 mi North 8.1 mph - N/A   Mostly Cloudy
3:35 PM 73.4 °F - 66.2 °F 78% 29.87 in 10.0 mi Calm Calm - N/A Rain Light Rain
3:55 PM 71.6 °F - 68.0 °F 88% 29.87 in 7.0 mi Calm Calm - 0.01 in Rain Light Rain
4:15 PM 71.6 °F - 69.8 °F 94% 29.86 in 10.0 mi Calm Calm - 0.01 in Rain Light Rain
4:35 PM 73.4 °F - 69.8 °F 88% 29.87 in 10.0 mi NNW 6.9 mph - 0.01 in   Light Drizzle
4:55 PM 69.8 °F - 66.2 °F 88% 29.89 in 0.8 mi ESE 17.3 mph 26.5 mph 0.41 in Rain Heavy Rain
5:15 PM 66.2 °F - 66.2 °F 100% 29.90 in 1.8 mi ENE 3.5 mph - 0.41 in Rain Heavy Rain
5:35 PM 68.0 °F - 66.2 °F 94% 29.89 in 5.0 mi Calm Calm - 0.48 in Rain Rain
5:55 PM 68.0 °F - 66.2 °F 94% 29.90 in 5.0 mi Calm Calm - 0.50 in Rain Light Rain
6:15 PM 68.0 °F - 66.2 °F 94% 29.90 in 5.0 mi Calm Calm - 0.02 in Rain Rain
6:35 PM 68.0 °F - 66.2 °F 94% 29.90 in 5.0 mi Calm Calm - 0.04 in Rain Light Rain
6:55 PM 69.8 °F - 68.0 °F 94% 29.90 in 5.0 mi Calm Calm - 0.05 in Rain Light Rain
7:15 PM 68.0 °F - 68.0 °F 100% 29.91 in 4.0 mi Calm Calm - 0.01 in Rain Light Rain
7:35 PM 68.0 °F - 66.2 °F 94% 29.92 in 7.0 mi Calm Calm - 0.01 in   Overcast
7:55 PM 69.8 °F - 66.2 °F 88% 29.93 in 5.0 mi Calm Calm - 0.01 in   Drizzle
8:15 PM 68.0 °F - 66.2 °F 94% 29.94 in 5.0 mi Calm Calm - N/A   Overcast
8:35 PM 68.0 °F - 66.2 °F 94% 29.94 in 4.0 mi Calm Calm - N/A   Overcast
8:55 PM 68.0 °F - 66.2 °F 94% 29.94 in 4.0 mi Calm Calm - N/A Rain Rain
9:15 PM 66.2 °F - 66.2 °F 100% 29.95 in 3.0 mi Calm Calm - N/A   Light Drizzle
9:55 PM 66.2 °F - 66.2 °F 100% 29.96 in 4.0 mi ENE 3.5 mph - N/A   Mostly Cloudy
10:15 PM 66.2 °F - 64.4 °F 94% 29.96 in 3.0 mi Calm Calm - N/A   Scattered Clouds
10:35 PM 66.2 °F - 64.4 °F 94% 29.97 in 3.0 mi Calm Calm - N/A   Scattered Clouds
10:55 PM 66.2 °F - 64.4 °F 94% 29.98 in 3.0 mi Calm Calm - N/A   Mostly Cloudy
11:15 PM 66.2 °F - 64.4 °F 94% 29.99 in 4.0 mi Calm Calm - N/A   Mostly Cloudy
11:55 PM 64.4 °F - 64.4 °F 100% 30.00 in 4.0 mi Calm Calm - N/A   Overcast